Vertical_Velocity
-7 -4 -7 -2 -3 -1 -2 -0 -0 0 2 0 6 7 4 -8 0 3 -8 -11 -8 -13
-9 -9 -7 -6 -10 -4 -3 -2 1 3 -4 -1 -1 2 6 -3 1 10 -1 -12 1 6
-5 -12 -8 -9 -10 -8 -4 -8 -3 -6 -5 -1 4 -2 -6 -4 -4 4 0 -5 4 10
-2 -8 -8 -6 -5 -3 -3 -5 -6 -2 -2 -5 -0 3 1 -3 -2 -1 1 -1 -2 3
-2 -3 -6 -4 -5 -7 -5 -5 -8 -6 -5 -4 -1 -4 0 -5 -4 -1 -4 1 1 6
-1 -0 -2 -3 -2 -5 -3 -4 -4 -2 -4 -2 1 5 -2 7 3 -4 -3 -2 -5 4
7 4 4 3 -1 3 -1 -0 -3 -5 7 4 -1 -7 24 20 4 2 -3 2 -0 3
-0 6 9 5 1 -3 1 1 3 4 -5 5 5 -2 1 -7 10 1 2 21 6 3
9 11 4 5 0 3 -1 -3 -2 0 -0 -6 7 -2 3 14 7 7 4 8 20 18
-1 2 0 2 2 4 -2 -2 -4 -5 -3 -1 4 2 2 6 12 16 8 -0 10 12
4 -4 2 0 0 -3 -3 0 -5 -5 -8 -5 -0 -2 1 2 -2 6 13 1 5 2
-1 -3 2 1 -3 0 -3 -2 -1 -2 -3 -6 -1 -2 2 -1 5 16 9 13 6 6
-1 -4 1 -1 -5 -2 -3 -4 -3 -2 -4 -5 -3 0 -2 3 4 9 5 6 12 -1
-1 -5 -5 -3 -2 -1 -2 -3 -2 -1 -3 1 -4 0 -0 1 0 6 5 13 -5 7
Height
5660 5659 5658 5656 5654 5654 5654 5652 5651 5649 5647 5646 5645 5643 5644 5649 5651 5653 5656 5655 5655 5652
5630 5629 5627 5624 5624 5623 5621 5621 5621 5619 5617 5617 5619 5621 5619 5619 5622 5625 5631 5635 5635 5638
5604 5599 5597 5594 5591 5589 5588 5588 5588 5589 5589 5591 5590 5591 5594 5597 5598 5598 5603 5611 5615 5620
5578 5575 5573 5573 5571 5570 5568 5566 5566 5566 5566 5566 5567 5567 5570 5574 5577 5577 5578 5584 5590 5599
5558 5554 5553 5553 5551 5552 5552 5550 5549 5548 5549 5549 5548 5549 5550 5553 5556 5557 5561 5563 5568 5574
5539 5537 5535 5534 5533 5534 5535 5534 5533 5533 5532 5534 5533 5534 5534 5536 5537 5539 5541 5542 5547 5554
5522 5521 5520 5518 5517 5517 5517 5516 5517 5518 5517 5517 5518 5520 5519 5518 5520 5520 5520 5521 5525 5530
5505 5505 5504 5503 5503 5504 5504 5504 5504 5503 5505 5504 5506 5507 5505 5507 5505 5505 5504 5502 5503 5507
5489 5489 5489 5488 5489 5490 5491 5492 5493 5492 5492 5493 5494 5496 5496 5497 5497 5496 5495 5493 5492 5494
5473 5472 5472 5472 5473 5474 5475 5477 5479 5480 5482 5482 5483 5485 5486 5487 5488 5489 5489 5490 5490 5491
5457 5456 5458 5457 5457 5457 5459 5461 5464 5466 5469 5471 5471 5474 5476 5477 5479 5482 5483 5485 5484 5485
5440 5441 5442 5442 5442 5443 5443 5446 5449 5452 5454 5457 5460 5462 5465 5467 5471 5473 5475 5477 5480 5482
5425 5426 5426 5425 5426 5427 5428 5431 5433 5437 5440 5443 5447 5449 5453 5457 5461 5464 5467 5469 5471 5475
5415 5413 5410 5408 5409 5412 5415 5417 5419 5423 5425 5429 5432 5436 5440 5445 5450 5453 5458 5461 5464 5466